Weather History for Buffalo, WY

Change the Weather History Date:

Thursday, September 19, 2013

  Actual Average Record
Temperature  
Mean Temperature 51 °F 56 °F  
Max Temperature 57 °F 69 °F 94 °F (2010)
Min Temperature 44 °F 43 °F 38 °F (2010)
Degree Days  
Heating Degree Days 14 9  
Month to date heating degree days 29 117  
Since 1 July heating degree days 30 182  
Cooling Degree Days 0 1  
Month to date cooling degree days 93 40  
Year to date cooling degree days 707 486  
Moisture  
Dew Point 38 °F    
Average Humidity 67    
Maximum Humidity 83    
Minimum Humidity 51    
Precipitation  
Precipitation 0.01 in 0.05 in 0.35 in (2000)
Month to date precipitation 2.02 0.72  
Year to date precipitation 6.44 10.99  
Sea Level Pressure  
Sea Level Pressure 30.10 in    
Wind  
Wind Speed 10 mph (NNW)    
Max Wind Speed 22 mph    
Max Gust Speed 28 mph    
Visibility 10 miles    
Events      
T = Trace of Precipitation, MM = Missing Value Source: NWS Daily Summary

Daily Weather History Graph

Daily Weather History Graph

Search for Another Location

Airport:

Trip Planner

Search our weather history database for the weather conditions in past years. The results will help you decide how hot, cold, wet, or windy it might be!

Date:

Astronomy

Sep. 19, 2013 Rise Set
Actual Time 6:50 AM MDT 7:09 PM MDT
Civil Twilight 6:21 AM MDT 7:38 PM MDT
Nautical Twilight 5:47 AM MDT 8:12 PM MDT
Astronomical Twilight 5:12 AM MDT 8:47 PM MDT
Moon 7:05 PM MDT (9/19) 7:05 AM MDT (9/19)
Length of Visible Light 13h 16m
Length of Day
12h 18m
Full, 100% of the Moon is Illuminated
Sep 19
Full
Sep 26
Last Quarter
Oct 4
New
Oct 11
First Quarter
Oct 18
Full

Hourly Weather History & Observations

Time (MDT) Temp. Windchill Dew Point Humidity Pressure Visibility Wind Dir Wind Speed Gust Speed Precip Events Conditions
12:53 AM 48.0 °F - 37.0 °F 66% 29.95 in 10.0 mi Calm Calm - N/A   Clear
1:53 AM 48.9 °F - 36.0 °F 61% 29.95 in 10.0 mi NNW 4.6 mph - N/A   Clear
2:53 AM 46.9 °F - 36.0 °F 66% 29.96 in 10.0 mi Variable 3.5 mph - N/A   Clear
3:53 AM 46.0 °F 43.1 °F 36.0 °F 68% 29.98 in 10.0 mi NNW 5.8 mph - N/A   Clear
4:53 AM 46.0 °F 40.2 °F 37.0 °F 71% 30.01 in 10.0 mi NNW 12.7 mph - N/A   Clear
5:53 AM 44.1 °F 38.1 °F 37.0 °F 76% 30.06 in 10.0 mi NW 11.5 mph 26.5 mph N/A   Scattered Clouds
6:53 AM 44.1 °F 38.6 °F 36.0 °F 73% 30.09 in 10.0 mi NNW 10.4 mph - N/A   Partly Cloudy
7:53 AM 45.0 °F 37.9 °F 36.0 °F 71% 30.10 in 10.0 mi NNW 16.1 mph 26.5 mph N/A   Clear
8:53 AM 48.0 °F - 37.0 °F 66% 30.11 in 10.0 mi North 15.0 mph 25.3 mph N/A   Scattered Clouds
9:53 AM 51.1 °F - 37.9 °F 61% 30.12 in 10.0 mi North 13.8 mph 24.2 mph N/A   Partly Cloudy
10:53 AM 51.1 °F - 37.9 °F 61% 30.13 in 10.0 mi North 11.5 mph 24.2 mph N/A   Mostly Cloudy
11:53 AM 48.9 °F - 37.9 °F 66% 30.16 in 10.0 mi North 20.7 mph 25.3 mph N/A   Overcast
12:53 PM 54.0 °F - 39.9 °F 59% 30.14 in 10.0 mi North 17.3 mph 25.3 mph 0.01 in   Scattered Clouds
1:53 PM 54.0 °F - 39.0 °F 57% 30.13 in 10.0 mi NNW 13.8 mph 25.3 mph N/A   Overcast
2:53 PM 55.9 °F - 37.9 °F 51% 30.12 in 10.0 mi North 8.1 mph - N/A   Mostly Cloudy
3:53 PM 57.0 °F - 39.0 °F 51% 30.12 in 10.0 mi North 8.1 mph - N/A   Scattered Clouds
4:53 PM 55.9 °F - 39.0 °F 53% 30.13 in 10.0 mi North 8.1 mph 17.3 mph N/A   Overcast
5:53 PM 55.0 °F - 37.9 °F 53% 30.13 in 10.0 mi NW 6.9 mph - N/A   Overcast
6:53 PM 52.0 °F - 37.9 °F 59% 30.14 in 10.0 mi North 8.1 mph - N/A   Scattered Clouds
7:53 PM 50.0 °F - 37.0 °F 61% 30.15 in 10.0 mi NNW 5.8 mph - N/A   Clear
8:53 PM 45.0 °F 42.6 °F 39.0 °F 80% 30.17 in 10.0 mi West 4.6 mph - N/A   Clear
9:53 PM 45.0 °F 42.6 °F 37.9 °F 76% 30.17 in 10.0 mi West 4.6 mph - N/A   Clear
10:53 PM 45.0 °F 41.2 °F 37.9 °F 76% 30.17 in 10.0 mi WSW 6.9 mph - N/A   Clear
11:53 PM 44.1 °F 40.8 °F 37.0 °F 76% 30.17 in 10.0 mi WSW 5.8 mph - N/A   Clear